IRIDIUM 33 DEB, 34521

Orbit data source: Space-Track

IRIDIUM 33 DEB, 34521 is space debris in LEO originally from a launch on Sun, 14 Sep 1997 UTC launched from the Tyuratam Missile And Space Complex (TTMTR). The debris from Iridium 33, an American commercial communications satellite, has been tracked extensively since its accidental collision with the defunct Russian satellite Cosmos 2251 in 2009. This event, occurring at high speed in low Earth orbit (LEO), generated thousands of pieces of space debris, significantly increasing the risk of further collisions. The Iridium 33 debris cloud has impacted space traffic management and orbital debris mitigation strategies, making it a subject of ongoing study in space situational awareness.

Loading next visibility...
Identifier
34521, 1997-051HN
Orbit
LEO
Country
Flag of USUS
Related business
Manufacturer
Unknown
Mission
Spacecraft
Bus & Motor
Unknown
Mass
Unknown
Launch date (UTC)
1997-09-14 (29 years ago)
Launch vehicle
Unknown
Launch site
Tyuratam Missile And Space Complex (TTMTR)
Object type
Payload
Rocket body
Debris
Shape & HBR
Unknown shape, 0.1 m
Radar Cross Section
Medium (>0.1 m² and <1 m²)

Expand to show TLE details & history
Last TLE update: 21 hours ago

TLE from 21 hours ago
0 IRIDIUM 33 DEB
1 34521U 97051HN  26262.75476748  .00002591  00000-0  46428-3 0  9997
2 34521  86.3730 266.4486 0004915  56.2051 303.9630 14.66444324925871
Epoch: 2026-09-19T18:06Z
TLE epoch observation values (Epoch: 2026-09-19T18:06:51.910Z)
Latitude
-0.00002°
Longitude
-3.92645°
Altitude
673.603 km
Speed
7.521 km/s
True Right ascension
17h 45m 47s
True Declination
0° 00' 00"
Sunlit
Object was in daylight at epoch
Visualization orbit readout
Latitude
Unknown
Longitude
Unknown
Altitude
Unknown
Speed
Unknown
Apparent Right ascension
Unknown
Apparent Declination
Unknown
Sunlit
N/A
Visualization observer readout
Local Sidereal Time
07:42:52
Azimuth
Unknown
Elevation
Unknown
Doppler factor
Unknown
Orbital elements
Apogee altitude
672.826 km
Perigee altitude
665.898 km
Semi-major axis
7,047.499 km
Eccentricity
0.00049
Inclination
86.373°
RAAN
266.4486°
Arg. of periapsis
56.2051°
True anomaly
303.91627°
Mean anomaly
303.963°
Eccentric anomaly
303.93964°
Mean motion
3.66852 °/min
Orbital period
98.13 mins
BSTAR
0.00046428

Documentation

Showing up to 5 results
|